Location: Albuquerque Trailhead
(34.7934°N, 106.3736°W)
Time: 00:30:19
(UTC+00:00)

Cosmos 2322 Rocket - Pass Details

Date: 20 June 2021
Orbit: 833 x 850 km, 71.0° (Epoch: 01 August)

Event Time Altitude Azimuth Distance (km) Brightness Sun altitude
Rises 03:41:43 0° 216° (SW) 3,395 5.3 -14.1°
Reaches altitude 10° 03:44:15 10° 222° (SW) 2,465 4.6 -14.5°
Maximum altitude 03:49:40 46° 295° (WNW) 1,132 3.4 -15.3°
Drops below altitude 10° 03:55:08 10° 8° (N) 2,481 5.1 -16.1°
Sets 03:57:42 0° 15° (NNE) 3,420 5.8 -16.5°
